This is the latest recevied weather packets stored in our database for station/object W6ZZY. If no packets are shown the sender has not sent any weather packets the latest 10 day(s).
| Time | Temp. | Humidity | Pressure | Rain* | Wind** | Luminosity | Snow |
|---|---|---|---|---|---|---|---|
| 1777425627 | 18.33° C | 64% | 1021.2 hPa | 0 mm | - | - | - |
| 1777424436 | 19.44° C | 59% | 1021.1 hPa | 0 mm | - | - | - |
| 1777422015 | 20.56° C | 57% | 1021 hPa | 0 mm | - | - | - |
| 1777413621 | 20.56° C | 61% | 1022 hPa | 0 mm | - | - | - |
| 1777410674 | 21.11° C | 58% | 1022.2 hPa | 0 mm | - | - | - |
| 1777409422 | 21.11° C | 55% | 1022.4 hPa | 0 mm | - | - | - |
| 1777408817 | 21.67° C | 55% | 1022.5 hPa | 0 mm | - | - | - |
| 1777408253 | 21.11° C | 56% | 1022.5 hPa | 0 mm | - | - | - |
| 1777407626 | 20.56° C | 56% | 1022.6 hPa | 0 mm | - | - | - |
| 1777404620 | 20° C | 60% | 1023 hPa | 0 mm | - | - | - |
| 1777401654 | 18.33° C | 67% | 1023.2 hPa | 0 mm | - | - | - |
| 1777400423 | 17.78° C | 69% | 1023.3 hPa | 0 mm | - | - | - |
| 1777399817 | 17.22° C | 71% | 1023.3 hPa | 0 mm | - | - | - |
| 1777398062 | 16.11° C | 74% | 1023.4 hPa | 0 mm | - | - | - |
| 1777396831 | 15.56° C | 77% | 1023.3 hPa | 0 mm | - | - | - |
| 1777396226 | 15° C | 77% | 1023.2 hPa | 0 mm | - | - | - |
| 1777394431 | 13.33° C | 83% | 1023.1 hPa | 0 mm | - | - | - |
| 1777388435 | 11.11° C | 94% | 1022.5 hPa | 0 mm | - | - | - |
| 1777383634 | 9.44° C | 96% | 1021.7 hPa | 0 mm | - | - | - |
| 1777380017 | 9.44° C | 95% | 1021.4 hPa | 0 mm | - | - | - |
| 1777378827 | 10° C | 94% | 1021.4 hPa | 0 mm | - | - | - |
| 1777375820 | 10° C | 95% | 1021.3 hPa | 0 mm | - | - | - |
| 1777375215 | 10° C | 95% | 1021.3 hPa | 0 mm | - | - | - |
| 1777373439 | 9.44° C | 95% | 1021.2 hPa | 0 mm | - | - | - |
| 1777372249 | 8.89° C | 93% | 1021.1 hPa | 0 mm | - | - | - |
* Rain latest hour (hover to see other rain measurements)
** Current wind speed in m/s (hover to see current wind gust speed)